Powrót do katalogu

COSMOS 2058

AktywnyNawigacjaPO
NORAD 20465·PAYLOAD·🇷🇺 Russia

Wystrzelony Jan 30, 1990 z Plesetsk Cosmodrome

Loading…

Następne Przeloty (najbliższe 24 godziny)

TLE

ŚwieżeSource: Space-Track

Epoka: Sep 13, 2026, 22:26 UTC

1 20465U 90010A   26256.93493264  .00002543  00000-0  14455-3 0  9994
2 20465  82.4659 221.7977 0011228  52.7026 307.5227 15.12422074970688

Śledź COSMOS 2058 w czasie rzeczywistym z AllMySat

Download on the App Store